RH
88 88 93 90 94 96 93 91 86 84 85 86 92 92 87 86 80 84 99 98 97 100 100 98 96 100 98 89 96 100 98 99 100 100 100 99 99 96 91 77 97 97 98 98 99 98 92 26 28 41 52 44 37 38
90 89 90 90 88 91 97 96 94 94 91 90 90 89 89 88 81 86 99 99 95 99 100 97 97 99 92 77 95 97 94 98 96 99 100 100 99 99 90 96 69 98 91 94 84 80 48 31 41 47 39 38 38 39
89 90 90 92 94 93 93 95 96 96 95 92 92 91 90 86 83 92 99 98 97 100 99 97 99 93 89 85 80 97 99 95 99 95 99 100 98 98 97 97 79 67 69 92 71 49 39 39 43 42 37 38 40 42
82 88 88 88 91 93 95 90 92 94 94 92 91 90 89 89 91 90 98 96 94 100 100 100 91 94 93 89 91 88 90 93 94 98 100 100 97 87 96 69 74 72 64 68 66 45 41 38 36 35 36 38 41 42
82 82 88 88 88 90 91 95 94 94 95 94 93 90 84 83 85 92 97 97 94 94 99 100 95 96 90 90 94 91 90 93 99 100 100 99 87 73 76 66 72 50 62 70 82 51 55 45 42 36 42 46 43 39
84 82 82 86 89 88 90 94 96 94 96 94 94 95 96 95 91 94 100 97 96 94 100 99 99 97 94 89 90 92 94 96 99 100 100 89 58 81 87 69 39 36 37 42 45 37 39 46 34 31 38 44 42 38
86 86 85 82 86 92 89 88 90 94 94 93 91 93 95 94 98 99 98 95 92 94 99 99 99 99 88 93 97 97 90 94 90 96 92 69 61 86 90 59 35 32 32 35 31 40 43 36 42 38 41 41 40 34
85 85 86 86 81 85 85 85 85 88 89 91 89 89 87 86 89 97 97 88 93 93 92 98 99 99 95 100 99 92 96 83 88 84 80 72 62 66 75 38 22 20 26 31 29 34 39 39 38 40 37 37 39 38
85 85 84 84 86 82 78 79 82 79 84 86 85 85 90 95 100 99 91 86 97 95 98 98 94 98 94 94 90 81 73 92 70 90 69 74 71 80 52 36 26 25 36 32 28 30 33 39 38 43 41 42 48 42
85 84 83 83 83 83 83 74 69 72 79 84 89 95 98 92 81 77 90 96 95 96 96 88 83 98 93 93 93 87 90 90 94 76 60 90 68 46 37 31 30 36 35 34 44 50 47 45 45 50 47 48 53 48
80 82 82 81 81 81 81 82 74 68 74 86 90 76 68 69 70 90 97 96 94 99 98 84 70 76 68 81 95 86 94 88 87 72 85 90 86 66 42 38 39 32 32 36 41 40 41 54 58 60 52 50 55 55
78 78 78 79 80 80 81 81 80 70 73 68 65 55 63 74 90 90 90 79 74 94 88 94 88 96 92 86 91 93 87 91 78 76 90 87 84 52 42 41 41 36 32 36 36 42 49 60 68 65 61 57 58 59
78 80 77 77 80 78 80 81 81 80 75 65 72 84 79 86 76 81 84 82 92 98 93 100 99 97 95 95 96 91 85 91 72 92 86 86 68 43 43 43 42 40 42 44 47 48 64 69 66 66 64 61 66 66
75 75 79 76 79 81 81 81 79 76 65 80 84 79 87 87 97 90 82 91 94 85 82 90 97 96 97 91 94 85 78 78 86 91 79 88 52 47 47 45 41 50 55 64 63 65 67 71 70 78 84 86 86 85
74 75 74 73 78 80 80 82 79 65 68 80 80 88 90 86 86 87 82 81 75 70 79 92 94 93 96 92 90 84 86 84 86 85 94 83 59 58 56 53 55 71 82 88 95 98 98 98 98 97 98 98 98 98
74 74 74 77 77 77 82 77 61 67 70 82 77 85 86 92 98 89 86 85 70 76 75 84 90 92 90 91 85 79 80 82 87 96 89 67 60 67 86 84 88 95 98 98 98 98 97 97 96 95 98 99 96 96
78 75 75 76 78 79 65 71 66 59 78 68 90 89 94 95 96 93 87 86 73 82 90 84 83 72 89 85 72 85 86 93 95 89 84 73 83 91 89 89 91 92 95 95 96 98 98 97 98 98 97 96 96 96
75 77 72 72 77 70 70 71 65 74 83 87 96 94 95 96 96 95 92 86 82 76 75 68 74 67 84 59 85 92 96 96 94 93 90 86 88 88 81 91 91 90 94 96 94 93 95 96 94 98 93 89 92 93
80 76 72 75 79 83 76 76 75 85 86 90 91 91 95 95 92 87 90 82 77 75 85 89 73 80 84 95 93 96 98 93 95 98 96 94 89 89 92 92 88 90 95 94 93 96 94 91 89 95 94 93 96 95
77 74 77 80 83 70 66 78 67 70 84 88 82 90 93 95 94 95 94 84 78 92 91 86 89 94 94 96 96 95 94 92 92 97 100 99 96 90 91 90 94 90 93 88 90 90 92 97 95 91 94 93 94 95
81 77 76 77 75 68 76 86 82 76 75 84 78 80 93 86 94 92 91 76 90 92 88 88 92 96 87 91 89 90 87 86 92 94 95 99 99 93 93 95 87 93 94 95 95 96 92 96 97 97 95 96 96 95
93 77 88 79 82 71 79 74 80 76 87 89 80 76 94 94 94 92 78 92 92 92 92 92 91 93 93 88 94 88 88 87 87 93 97 94 97 96 97 95 94 96 96 96 95 95 96 94 94 94 94 93 93 94
83 78 82 84 89 84 90 79 79 77 91 90 83 84 90 92 92 75 90 91 92 93 92 89 77 84 93 98 92 91 88 84 93 93 92 94 95 94 94 94 93 94 96 95 90 92 94 90 89 93 94 94 95 96
73 93 92 92 88 97 82 88 82 76 85 84 83 76 82 92 78 88 83 87 92 94 92 90 91 94 95 90 97 98 96 95 94 93 92 90 92 94 94 95 89 90 87 86 84 92 94 93 92 95 96 96 97 97
85 89 92 95 88 91 90 87 82 80 86 80 75 84 88 86 88 86 76 85 90 95 96 95 94 93 95 96 96 98 89 95 95 94 95 89 91 94 95 94 91 88 89 90 92 92 94 94 93 94 94 94 93 93
90 98 94 85 90 86 85 91 90 87 86 83 82 87 90 90 86 86 74 88 96 98 99 95 96 96 94 95 95 97 96 95 92 96 98 93 92 93 96 97 98 98 89 94 93 94 93 94 94 93 96 92 94 94
93 98 82 72 68 65 84 82 71 85 86 86 92 89 90 90 87 81 91 93 96 98 98 97 95 94 94 96 94 93 88 88 90 89 80 75 75 78 88 93 96 96 85 88 92 94 96 96 96 96 96 98 97 97
86 81 90 90 82 80 88 94 96 86 87 79 86 89 88 84 85 96 97 98 95 94 94 95 96 94 94 95 94 92 92 89 85 81 78 82 86 91 90 88 87 85 93 93 92 93 94 97 98 98 98 97 95 94
90 79 76 87 86 86 87 88 88 79 82 84 90 90 85 90 98 98 98 97 97 93 96 98 98 95 96 95 95 96 95 94 94 94 93 98 98 98 96 95 96 96 95 95 94 93 90 93 95 98 96 97 94 94
90 78 88 88 90 90 92 90 91 91 87 87 83 77 84 95 97 95 96 97 97 97 98 97 95 94 96 95 98 98 98 97 97 96 95 99 98 98 96 96 97 97 97 96 96 96 96 96 99 98 96 96 97 98
75 89 88 89 90 93 96 99 99 98 98 95 99 92 93 99 98 94 96 97 96 99 99 98 98 98 96 96 94 95 97 97 94 91 92 95 96 96 98 98 98 97 97 97 98 99 100 100 100 99 98 96 96 99
89 86 88 93 97 100 98 98 96 93 98 97 98 98 96 94 98 98 97 97 98 99 98 93 92 97 96 95 95 94 91 94 97 96 96 95 97 97 98 98 98 97 98 99 100 100 100 99 98 100 99 100 98 98
93 84 90 93 98 97 98 95 98 95 95 97 97 98 98 98 97 98 98 97 97 94 95 96 96 96 94 94 96 95 93 94 93 95 93 97 95 98 98 99 99 99 100 100 100 100 99 100 100 100 98 100 99 98
Wind_Speed
28 26 23 17 22 18 11 17 20 22 23 27 27 27 29 29 31 9 4 2 3 2 3 4 4 7 4 10 9 7 6 0 2 4 4 4 3 6 5 7 8 10 8 5 4 3 12 10 5 11 6 4 13 13
29 27 24 19 18 20 16 13 17 21 24 24 23 24 24 25 30 9 4 3 5 6 2 1 2 5 1 7 11 10 2 6 6 5 3 4 3 3 6 7 5 5 7 8 8 5 3 5 6 7 8 11 7 11
28 27 24 22 21 12 13 12 14 16 19 21 21 22 23 25 27 9 5 4 6 3 2 2 2 7 6 5 5 9 1 5 4 3 4 3 4 4 7 6 5 6 7 4 5 4 4 7 6 7 10 10 9 10
26 28 25 24 23 19 11 9 12 12 15 18 19 20 21 22 25 12 4 4 7 4 2 0 4 2 2 8 8 7 13 6 6 4 3 3 3 5 3 3 5 7 14 8 3 3 7 9 11 11 9 10 11 9
23 24 25 24 23 22 21 15 10 12 14 14 13 13 20 25 24 7 5 1 3 6 2 3 3 6 6 9 15 14 15 13 4 3 2 3 2 3 3 2 2 5 8 9 5 7 6 10 10 13 13 12 12 11
21 20 20 24 25 21 20 21 16 12 12 15 16 17 18 21 21 6 3 2 2 5 4 4 1 1 4 10 13 15 11 5 3 3 2 2 4 4 3 5 4 11 8 9 5 10 7 14 15 12 13 13 10 10
20 20 19 18 22 23 20 23 26 27 21 25 23 21 21 17 6 2 3 8 7 4 5 4 3 2 9 5 3 5 5 2 4 3 1 3 2 4 1 4 6 7 12 10 7 8 7 9 8 13 12 12 12 9
19 20 19 17 17 18 15 20 25 25 25 27 27 24 24 21 9 6 5 8 2 4 3 5 3 3 2 2 3 3 3 2 2 3 2 4 2 2 3 5 5 7 8 8 9 8 8 14 13 11 15 12 10 7
16 18 19 18 15 9 3 5 7 12 20 23 20 14 5 6 3 2 3 5 0 3 4 3 5 5 2 0 4 3 3 3 1 2 2 4 2 3 5 4 4 5 7 8 7 11 12 12 11 12 13 11 9 8
14 16 17 17 16 13 7 2 5 8 14 13 0 4 4 3 9 5 3 1 1 1 3 3 4 4 6 3 2 4 2 3 3 4 3 3 3 3 5 4 6 7 8 8 7 8 9 8 8 10 11 8 9 8
13 14 15 16 16 16 14 12 3 12 11 4 0 4 4 11 2 1 2 2 2 4 3 1 8 9 3 6 3 3 3 3 3 4 5 2 3 5 6 7 7 8 8 7 8 7 10 10 8 7 8 8 8 8
11 13 15 16 16 16 16 15 16 4 1 1 2 3 4 3 2 4 2 2 4 3 4 7 9 3 3 4 4 2 2 3 3 3 4 1 4 7 9 8 8 9 9 9 9 9 9 9 9 8 7 6 6 5
8 10 14 15 16 18 16 13 10 6 5 3 4 5 4 4 5 4 1 3 4 1 5 4 5 4 3 3 3 4 4 3 4 4 3 5 4 7 7 7 9 9 10 9 8 7 9 8 8 6 5 4 4 3
8 10 8 15 16 17 19 19 17 6 4 4 4 6 3 4 4 4 6 4 2 8 10 6 3 4 1 4 3 5 2 4 2 3 5 3 5 7 7 6 9 10 10 9 9 9 9 9 7 5 3 3 4 3
8 10 13 12 14 16 17 18 15 3 4 4 4 3 3 0 1 1 4 9 9 8 6 5 4 4 3 4 1 4 4 2 5 6 4 3 7 8 7 7 10 10 9 10 8 11 10 9 8 6 6 6 6 4
10 13 3 10 13 16 16 10 4 4 4 4 5 4 2 4 4 7 9 10 5 4 4 4 4 4 0 4 3 4 6 5 5 3 3 5 8 9 10 10 10 9 11 11 10 9 7 7 6 3 2 2 2 1
11 0 6 10 14 15 8 3 4 4 3 3 3 2 3 3 2 3 4 4 4 3 2 4 4 2 3 3 2 2 4 3 3 2 3 7 11 11 10 11 10 10 9 8 6 6 5 5 5 5 4 3 2 1
3 2 6 11 10 4 4 5 3 4 5 4 4 2 3 3 3 4 3 4 4 2 3 1 3 3 3 3 2 1 3 2 5 6 8 11 11 9 8 10 7 8 8 7 6 4 4 4 3 4 6 5 4 3
4 4 8 10 7 2 3 5 4 4 3 1 2 3 3 2 3 3 3 5 4 3 3 4 4 1 1 2 4 2 2 5 5 3 5 7 9 9 8 7 7 7 7 5 5 3 3 7 4 3 3 3 3 1
4 7 10 13 8 2 4 2 1 4 2 1 2 3 3 3 1 2 3 3 3 3 5 3 2 1 4 1 2 3 4 7 7 5 3 2 3 7 6 5 3 6 5 5 3 4 3 3 2 4 3 3 3 1
0 4 7 7 4 5 3 2 4 2 2 2 2 3 2 3 3 2 1 1 4 2 1 2 2 1 5 4 4 5 5 5 4 4 4 4 3 5 5 3 5 3 3 3 3 2 3 2 2 2 4 2 2 1
1 2 2 3 4 4 4 4 4 1 3 0 2 2 3 2 1 2 2 3 2 4 3 2 2 3 3 3 2 5 6 7 6 5 6 8 3 3 3 3 4 3 3 3 3 3 3 2 3 3 3 2 2 2
5 1 2 2 4 4 1 3 2 3 4 2 1 2 1 2 3 2 1 3 3 3 3 3 3 4 6 5 5 4 4 6 4 4 4 3 3 4 4 4 4 4 3 1 3 4 3 5 3 3 2 1 2 3
2 3 3 2 2 2 0 1 2 1 3 3 3 2 2 2 1 2 1 2 4 2 3 4 5 4 3 4 3 2 2 2 2 4 4 5 4 2 3 3 4 3 3 3 3 3 3 2 1 2 2 3 3 3
5 2 4 1 1 4 3 2 0 3 2 0 3 1 1 2 2 2 3 3 1 2 4 3 4 3 4 2 1 2 4 3 3 4 0 4 4 4 3 2 2 2 2 4 2 2 1 2 0 1 2 2 4 5
3 3 5 5 2 3 4 4 4 4 4 2 2 1 2 3 3 2 2 1 2 4 3 4 4 3 0 3 4 3 3 2 4 5 2 4 4 4 3 3 2 3 4 4 4 4 3 3 2 4 3 5 5 5
4 3 3 2 2 2 2 2 3 4 3 4 3 2 3 2 4 3 1 2 3 2 3 3 3 3 6 5 6 5 6 7 6 6 5 7 6 5 4 4 6 2 4 5 4 4 3 2 3 4 4 4 3 3
3 4 7 5 1 2 2 3 2 3 3 3 4 3 6 6 3 2 2 2 5 5 6 6 6 5 6 7 6 7 6 6 8 8 8 6 5 4 6 6 4 6 4 3 3 2 2 2 2 2 3 4 5 4
3 3 6 7 2 2 3 4 3 2 3 4 4 3 3 3 4 3 3 2 3 5 5 6 6 6 7 6 5 4 4 4 5 6 4 3 2 1 3 4 3 3 3 3 4 3 3 1 3 2 4 4 5 4
4 4 4 5 5 4 4 4 3 1 2 3 3 2 3 4 4 5 5 5 4 3 3 4 5 5 6 7 6 6 5 5 4 3 4 4 3 3 4 4 4 3 3 3 3 4 6 4 4 4 4 4 3 3
8 3 4 3 3 3 2 3 2 3 3 3 3 3 3 4 3 5 6 5 4 2 2 4 4 4 7 7 7 7 5 4 6 8 7 5 5 5 3 3 2 3 3 4 3 3 3 3 3 4 4 6 6 5
4 5 5 4 3 2 3 2 3 3 3 2 2 3 3 3 4 2 4 5 3 2 6 8 8 8 8 8 8 7 11 6 6 6 8 6 5 4 3 3 4 4 4 4 3 4 4 4 3 4 4 5 6 6
3 5 2 3 3 5 3 4 3 2 3 3 2 3 3 3 4 2 2 6 6 8 9 8 8 9 11 11 10 8 9 7 10 11 11 9 6 5 3 3 3 3 5 4 4 4 5 5 4 5 6 5 5 6
Wind_Direction
15 15 9 27 35 38 100 123 144 154 157 162 163 167 173 177 179 157 96 72 109 93 7 35 354 132 132 157 149 162 103 326 84 143 145 171 149 193 133 159 167 163 165 179 155 202 253 153 100 162 175 48 98 93
13 19 23 32 45 45 62 109 123 140 150 150 157 165 171 178 181 143 98 87 77 66 33 331 308 339 292 171 117 173 82 146 162 125 154 125 165 147 149 178 155 200 188 164 187 214 254 153 124 122 116 112 97 102
17 19 29 35 37 54 40 59 115 132 141 148 156 164 170 174 172 137 109 122 68 78 353 33 353 332 2 75 127 121 256 136 140 123 127 145 161 166 168 199 123 203 159 145 137 225 144 122 100 104 116 106 100 97
27 21 27 36 41 45 64 81 85 119 138 146 154 160 165 163 159 132 131 154 99 98 179 101 297 359 62 83 80 93 121 124 105 91 109 148 143 204 207 179 154 180 160 156 182 173 109 143 136 129 112 112 105 93
23 34 26 33 39 51 49 56 115 108 123 123 122 147 162 164 150 122 102 152 137 128 144 104 74 29 87 104 111 121 122 124 127 110 117 146 168 134 192 79 226 162 162 173 197 186 126 153 143 132 125 122 120 117
22 30 42 39 36 46 48 58 80 122 124 133 130 129 127 128 128 126 79 341 190 114 126 149 328 85 122 121 123 126 127 111 100 111 134 203 173 142 139 206 210 165 156 144 161 156 146 149 155 155 143 139 135 128
31 28 36 50 46 46 57 62 65 74 95 85 88 96 105 112 87 135 170 143 140 116 107 113 100 11 123 93 96 112 100 130 112 148 144 155 145 98 178 184 193 156 148 147 145 131 132 134 137 121 122 119 119 122
36 33 35 44 69 64 58 72 72 69 71 86 90 89 98 97 70 44 39 87 63 81 134 112 89 90 143 111 104 144 133 92 358 170 96 105 351 143 193 260 76 114 127 140 130 107 128 125 127 131 124 120 122 131
37 38 31 39 51 79 66 76 96 97 108 114 114 110 86 44 64 124 97 303 343 159 105 136 146 128 132 178 120 38 112 58 275 78 105 106 181 214 206 189 151 124 136 131 113 126 118 128 137 139 135 138 145 170
31 38 36 26 32 47 50 200 185 136 138 154 83 69 50 314 144 166 155 96 117 61 41 102 90 119 137 160 96 107 88 152 116 231 100 97 211 221 194 166 141 117 135 125 120 125 127 130 137 148 156 154 163 176
30 32 34 27 19 18 20 20 276 209 165 212 344 68 126 150 73 110 111 108 210 76 77 55 119 116 83 102 115 112 164 173 114 215 118 181 257 206 185 160 141 131 134 141 137 136 145 149 152 146 151 159 169 173
20 26 31 22 15 11 10 12 0 38 55 245 223 146 119 165 156 102 173 271 91 92 101 129 114 73 57 64 81 12 98 52 117 123 83 203 256 170 175 158 140 139 136 136 133 139 137 146 146 148 151 146 160 171
13 20 26 20 7 1 2 359 356 321 277 47 52 48 44 320 30 107 92 67 86 103 130 129 115 136 57 65 60 87 87 199 93 67 185 223 194 139 152 149 147 141 136 134 135 131 125 134 129 134 135 108 125 134
344 345 1 16 1 355 354 350 347 12 50 84 73 15 92 353 44 317 99 99 124 115 116 109 79 103 114 68 142 90 205 97 81 96 235 221 168 144 138 134 133 134 129 133 133 126 120 123 128 110 118 120 126 178
324 338 347 5 353 348 344 340 328 15 59 61 48 49 64 259 296 32 85 89 100 108 97 79 44 76 40 78 116 93 41 169 182 208 213 190 124 110 113 121 125 118 108 95 89 92 91 87 84 76 54 45 48 32
318 300 328 345 344 336 327 330 17 43 44 42 30 48 24 47 352 75 98 105 116 114 89 81 102 80 32 137 93 185 143 192 222 170 182 111 107 93 85 86 90 96 101 107 107 110 107 102 109 107 125 150 183 231
308 50 346 352 340 323 323 25 43 56 58 52 1 69 84 62 62 82 111 141 134 96 124 104 91 152 142 106 132 150 173 182 141 95 91 101 104 108 104 97 96 98 96 96 93 83 91 109 111 85 69 32 60 107
248 81 4 352 342 288 4 19 63 78 50 27 56 346 53 80 68 23 25 33 83 353 37 98 120 79 132 163 164 246 92 79 68 74 83 90 91 98 101 106 99 100 101 99 105 108 111 115 134 151 161 166 140 95
18 39 357 343 351 335 66 15 26 81 54 50 39 51 63 73 62 82 57 45 51 53 66 33 61 48 39 34 104 90 97 106 104 83 76 82 90 93 89 91 94 100 114 130 152 189 178 175 170 150 140 111 107 65
83 32 342 318 317 55 61 4 349 100 105 204 67 75 104 98 81 35 48 63 58 61 39 47 58 247 101 306 64 107 97 113 113 103 84 62 100 108 121 136 151 146 147 164 170 117 99 105 108 126 121 114 105 251
197 1 335 347 16 37 89 49 38 77 95 88 144 98 95 96 89 73 42 60 52 116 130 199 121 161 111 93 78 70 67 105 128 140 165 139 213 143 144 137 130 114 123 122 121 118 128 128 137 128 127 146 145 163
104 359 39 341 48 39 50 346 101 104 75 116 47 104 91 82 105 197 160 78 175 209 165 137 139 127 96 113 126 119 133 108 104 93 82 116 132 111 124 151 118 132 121 134 117 132 117 110 109 112 117 214 194 207
166 279 92 66 61 52 313 354 106 171 113 219 144 103 130 133 196 125 89 203 213 194 160 145 161 129 135 153 124 80 112 133 133 135 132 116 124 120 110 112 116 128 139 155 110 116 131 148 157 168 193 211 222 268
33 69 110 117 89 103 202 227 272 131 82 139 129 114 114 130 88 63 223 235 235 147 103 124 112 76 73 106 110 140 148 118 122 120 136 124 117 106 115 124 113 114 134 140 125 123 125 146 127 151 206 226 249 239
88 300 111 109 153 114 145 170 291 91 120 242 99 85 144 112 111 180 224 265 147 100 119 117 111 122 136 160 154 107 149 125 113 126 346 112 114 94 84 94 106 125 111 114 120 126 149 90 62 277 290 291 284 287
135 180 166 168 171 149 164 130 170 174 120 111 151 102 76 89 80 239 241 181 88 137 148 146 143 126 281 152 136 131 191 148 96 97 13 90 108 125 132 128 124 58 31 66 79 73 50 33 24 359 332 313 304 300
146 166 190 247 166 165 101 109 136 100 107 153 148 106 95 125 225 247 22 25 99 129 117 112 104 126 126 105 76 55 61 64 85 105 94 75 70 65 90 116 112 117 79 72 72 91 87 343 300 284 275 286 274 278
198 139 139 150 161 106 117 84 123 161 184 145 97 145 159 188 224 33 48 339 99 94 81 60 43 71 98 98 103 101 80 82 81 80 78 65 70 76 90 97 101 100 105 119 142 158 202 242 279 296 284 275 280 266
156 140 118 138 143 159 183 161 177 194 174 119 136 152 182 52 22 36 7 16 62 96 97 100 85 83 82 82 75 75 99 101 111 127 139 148 115 5 66 96 97 71 63 48 14 32 348 308 310 269 264 253 263 270
152 150 111 141 149 195 214 159 171 164 85 131 129 72 71 80 25 6 32 30 47 82 115 125 135 131 134 127 122 99 62 54 54 119 144 113 124 111 75 70 64 49 44 40 357 339 357 6 333 333 325 311 326 338
142 127 108 125 196 189 149 115 82 75 36 71 61 112 97 119 92 32 26 359 339 8 126 129 143 130 123 122 122 112 100 40 53 74 85 84 80 79 69 59 55 37 39 46 26 354 337 336 312 311 349 351 327 342
131 167 126 140 128 104 113 124 141 128 116 120 144 99 121 137 97 40 345 333 282 192 91 92 91 82 83 81 73 75 94 98 67 63 69 78 66 51 41 39 43 49 43 24 8 354 344 356 359 355 330 352 5 344
99 151 119 102 128 157 165 127 138 175 136 152 84 37 73 68 96 113 334 354 47 87 94 90 87 85 84 86 92 87 79 86 88 83 79 77 74 53 50 51 41 41 46 24 358 3 17 11 360 1 18 1 341 334